This demonstration page uses our WeatherBlox Daily Observations layout. Learn more.

Left ArrowRight Arrow

38.80484, -77.04692

Hourly Observations for October 5, 2021

Temp ( °F °C ) Dew Point ( °F °C ) Humidity (%) Winds ( mph kmh ) Pressure ( in mb ) Visibility ( mi km ) Precip ( " mm )
12:52 am 00:52 Mostly Clear 71 21.7 66 18.9 84 84 S 7 11 30.03 1017 10 16 0.00 0.00
1:52 am 01:52 Clear 71 21.7 65 18.3 81 81 SW 5 7 30.05 1018 10 16 0.00 0.00
2:52 am 02:52 Mostly Clear 70 21.1 66 18.9 87 87 S 5 7 30.04 1017 10 16 0.00 0.00
3:52 am 03:52 Partly Cloudy 69 20.6 65 18.3 87 87 SSW 5 7 30.05 1018 10 16 0.00 0.00
4:52 am 04:52 Partly Cloudy 69 20.6 66 18.9 90 90 WSW 5 7 30.07 1018 10 16 0.00 0.00
5:52 am 05:52 Mostly Cloudy 69 20.6 66 18.9 90 90 S 3 6 30.09 1019 10 16 0.00 0.00
6:52 am 06:52 Mostly Cloudy 69 20.6 66 18.9 90 90 Calm 30.10 1019 10 16 0.00 0.00
7:52 am 07:52 Mostly Cloudy 69 20.6 66 18.9 90 90 Calm 30.11 1020 9 14 0.00 0.00
8:52 am 08:52 Mostly Cloudy 71 21.7 66 18.9 84 84 NNW 6 9 30.14 1021 10 16 0.00 0.00
9:36 am 09:36 Cloudy 72 22.2 67 19.4 84 84 NNE 5 7 30.15 1021 10 16 0.00 0.00
9:52 am 09:52 Cloudy 72 22.2 67 19.4 84 84 NNE 9 15 30.15 1021 7 11 0.00 0.00
10:01 am 10:01 Cloudy 72 22.2 67 19.4 84 84 N 7 11 30.16 1021 8 13 0.00 0.00
10:21 am 10:21 Cloudy with Mist and Fog 71 21.7 67 19.4 87 87 ENE 6 9 30.17 1022 4 6 0.00 0.00
10:52 am 10:52 Cloudy with Haze 73 22.8 67 19.4 81 81 N 5 7 30.17 1022 4 6 0.00 0.00
11:04 am 11:04 Cloudy with Haze 74 23.3 68 20 82 82 NE 6 9 30.18 1022 5 8 0.00 0.00
11:24 am 11:24 Cloudy with Haze 77 25 68 20 74 74 NNE 7 11 30.18 1022 6 10 0.00 0.00
11:32 am 11:32 Mostly Cloudy with Haze 78 25.6 68 20 71 71 NNE 6 9 30.17 1022 6 10 0.00 0.00
11:52 am 11:52 Mostly Cloudy 79 26.1 68 20 69 69 ENE 3 6 30.17 1022 7 11 0.00 0.00
12:52 pm 12:52 Mostly Cloudy 81 27.2 68 20 65 65 ENE 9 15 30.17 1022 10 16 0.00 0.00
1:29 pm 13:29 Mostly Cloudy 79 26.1 68 20 69 69 NE 8 13 30.17 1022 10 16 0.00 0.00
1:52 pm 13:52 Mostly Cloudy 81 27.2 68 20 65 65 NE 6 9 30.16 1021 10 16 0.00 0.00
2:52 pm 14:52 Mostly Cloudy 83 28.3 66 18.9 57 57 N 6 9 30.15 1021 10 16 0.00 0.00
3:52 pm 15:52 Mostly Cloudy 83 28.3 66 18.9 57 57 ENE 6 9 30.14 1021 10 16 0.00 0.00
4:52 pm 16:52 Mostly Cloudy 78 25.6 67 19.4 69 69 ENE 17 28 30.16 1021 10 16 0.00 0.00
5:34 pm 17:34 Mostly Cloudy 74 23.3 67 19.4 79 79 ENE 10 17 30.19 1022 10 16 0.00 0.00
5:52 pm 17:52 Cloudy 73 22.8 66 18.9 79 79 E 12 19 30.19 1023 10 16 0.00 0.00
6:52 pm 18:52 Cloudy 72 22.2 66 18.9 82 82 NE 12 19 30.21 1023 10 16 0.00 0.00
7:52 pm 19:52 Cloudy 71 21.7 66 18.9 84 84 ENE 13 20 30.23 1024 9 14 0.00 0.00
7:57 pm 19:57 Cloudy 72 22.2 67 19.4 84 84 ENE 12 19 30.24 1024 10 16 0.00 0.00
8:08 pm 20:08 Cloudy 71 21.7 67 19.4 87 87 NE 10 17 30.24 1024 9 14 0.00 0.00
8:33 pm 20:33 Cloudy 72 22.2 67 19.4 84 84 ENE 8 13 30.25 1024 10 16 0.00 0.00
8:52 pm 20:52 Cloudy with Light Rain 72 22.2 67 19.4 84 84 ENE 7 11 30.25 1025 10 16 0.00 0.00
9:52 pm 21:52 Cloudy 72 22.2 67 19.4 84 84 ENE 9 15 30.27 1025 10 16 0.00 0.00
10:25 pm 22:25 Cloudy 72 22.2 66 18.9 82 82 ENE 10 17 30.27 1025 10 16 0.00 0.00
10:52 pm 22:52 Cloudy 72 22.2 67 19.4 84 84 NE 13 20 30.27 1025 10 16 0.00 0.00
11:27 pm 23:27 Cloudy 72 22.2 66 18.9 82 82 NE 9 15 30.29 1026 10 16 0.00 0.00
11:52 pm 23:52 Cloudy 71 21.7 66 18.9 84 84 ENE 10 17 30.29 1026 10 16 0.00 0.00

Powered by AerisWeather